Time,TemperatureF,DewpointF,PressureIn,WindDirection,WindDirectionDegrees,WindSpeedMPH,WindSpeedGustMPH,Humidity,HourlyPrecipIn,Conditions,Clouds,dailyrainin,SoftwareType,DateUTC
2013-06-24 00:11:00,73.9,71.0,30.07,SE,140,0.0,1.0,90,0.00,,,0.00,weatherlink.com 1.10,2013-06-24 05:11:00,
2013-06-24 00:26:00,73.6,71.0,30.07,SE,141,0.0,1.0,91,0.00,,,0.00,weatherlink.com 1.10,2013-06-24 05:26:00,
2013-06-24 00:56:00,73.4,71.0,30.07,SE,141,0.0,1.0,91,0.00,,,0.00,weatherlink.com 1.10,2013-06-24 05:56:00,
2013-06-24 01:11:00,73.3,71.0,30.07,SE,141,0.0,0.0,92,0.00,,,0.00,weatherlink.com 1.10,2013-06-24 06:11:00,
2013-06-24 01:26:00,73.1,71.0,30.07,SE,141,0.0,0.0,92,0.00,,,0.00,weatherlink.com 1.10,2013-06-24 06:26:00,
2013-06-24 01:41:00,73.0,71.0,30.07,SE,141,0.0,0.0,92,0.00,,,0.00,weatherlink.com 1.10,2013-06-24 06:41:00,
2013-06-24 01:56:00,72.8,71.0,30.07,SE,141,0.0,1.0,93,0.00,,,0.00,weatherlink.com 1.10,2013-06-24 06:56:00,
2013-06-24 02:11:00,72.6,71.0,30.07,SE,141,0.0,0.0,93,0.00,,,0.00,weatherlink.com 1.10,2013-06-24 07:11:00,
2013-06-24 02:26:00,72.6,71.0,30.06,SE,141,0.0,1.0,94,0.00,,,0.00,weatherlink.com 1.10,2013-06-24 07:26:00,
2013-06-24 02:41:00,72.4,71.0,30.07,SE,141,0.0,1.0,94,0.00,,,0.00,weatherlink.com 1.10,2013-06-24 07:41:00,
2013-06-24 02:56:00,72.4,71.0,30.07,SE,141,0.0,1.0,94,0.00,,,0.00,weatherlink.com 1.10,2013-06-24 07:56:00,
2013-06-24 03:11:00,72.3,71.0,30.07,SE,141,0.0,0.0,94,0.00,,,0.00,weatherlink.com 1.10,2013-06-24 08:11:00,
2013-06-24 03:26:00,72.1,70.0,30.07,SE,141,0.0,0.0,94,0.00,,,0.00,weatherlink.com 1.10,2013-06-24 08:26:00,
2013-06-24 03:41:00,72.0,71.0,30.07,SE,141,0.0,1.0,95,0.00,,,0.00,weatherlink.com 1.10,2013-06-24 08:41:00,
2013-06-24 03:56:00,71.9,71.0,30.08,SE,141,0.0,0.0,95,0.00,,,0.00,weatherlink.com 1.10,2013-06-24 08:56:00,
2013-06-24 04:11:00,71.9,71.0,30.09,SE,141,0.0,0.0,95,0.00,,,0.00,weatherlink.com 1.10,2013-06-24 09:11:00,
2013-06-24 04:26:00,71.9,71.0,30.09,SE,141,0.0,1.0,95,0.00,,,0.00,weatherlink.com 1.10,2013-06-24 09:26:00,
2013-06-24 04:41:00,72.1,71.0,30.09,SSE,164,0.0,1.0,96,0.00,,,0.00,weatherlink.com 1.10,2013-06-24 09:41:00,
2013-06-24 04:56:00,72.2,71.0,30.08,SSE,163,1.0,1.0,96,0.00,,,0.00,weatherlink.com 1.10,2013-06-24 09:56:00,
2013-06-24 05:11:00,72.3,71.0,30.08,SSE,163,0.0,1.0,96,0.00,,,0.00,weatherlink.com 1.10,2013-06-24 10:11:00,
2013-06-24 05:26:00,72.3,71.0,30.09,SSE,164,0.0,0.0,96,0.00,,,0.00,weatherlink.com 1.10,2013-06-24 10:26:00,
2013-06-24 05:41:00,72.3,71.0,30.09,SSE,163,0.0,0.0,96,0.00,,,0.00,weatherlink.com 1.10,2013-06-24 10:41:00,
2013-06-24 06:11:00,72.2,71.0,30.10,SSE,164,0.0,0.0,96,0.00,,,0.00,weatherlink.com 1.10,2013-06-24 11:11:00,
2013-06-24 06:26:00,72.4,71.0,30.11,SSE,163,0.0,0.0,96,0.00,,,0.00,weatherlink.com 1.10,2013-06-24 11:26:00,
2013-06-24 06:41:00,72.7,72.0,30.11,SSE,163,0.0,0.0,96,0.00,,,0.00,weatherlink.com 1.10,2013-06-24 11:41:00,
2013-06-24 06:56:00,73.0,72.0,30.11,SSE,163,0.0,0.0,96,0.00,,,0.00,weatherlink.com 1.10,2013-06-24 11:56:00,
2013-06-24 07:11:00,73.6,73.0,30.11,West,262,0.0,1.0,97,0.00,,,0.00,weatherlink.com 1.10,2013-06-24 12:11:00,
2013-06-24 07:26:00,74.3,73.0,30.12,West,262,0.0,1.0,96,0.00,,,0.00,weatherlink.com 1.10,2013-06-24 12:26:00,
2013-06-24 07:56:00,76.6,74.0,30.12,West,262,0.0,2.0,92,0.00,,,0.00,weatherlink.com 1.10,2013-06-24 12:56:00,
2013-06-24 08:11:00,77.8,74.0,30.13,WSW,238,0.0,1.0,89,0.00,,,0.00,weatherlink.com 1.10,2013-06-24 13:11:00,
2013-06-24 08:57:00,80.5,75.0,30.13,SSE,148,0.0,2.0,84,0.00,,,0.00,weatherlink.com 1.10,2013-06-24 13:57:00,
2013-06-24 09:27:00,82.5,76.0,30.13,West,273,1.0,3.0,80,0.00,,,0.00,weatherlink.com 1.10,2013-06-24 14:27:00,
2013-06-24 09:57:00,83.7,75.0,30.13,South,181,0.0,4.0,76,0.00,,,0.00,weatherlink.com 1.10,2013-06-24 14:57:00,
2013-06-24 10:12:00,84.4,76.0,30.13,South,184,2.0,3.0,76,0.00,,,0.00,weatherlink.com 1.10,2013-06-24 15:12:00,
2013-06-24 10:27:00,84.8,74.0,30.14,West,280,2.0,4.0,71,0.00,,,0.00,weatherlink.com 1.10,2013-06-24 15:27:00,
2013-06-24 10:42:00,86.0,76.0,30.13,SSE,162,0.0,3.0,71,0.00,,,0.00,weatherlink.com 1.10,2013-06-24 15:42:00,
2013-06-24 10:57:00,85.6,75.0,30.13,West,259,0.0,3.0,71,0.00,,,0.00,weatherlink.com 1.10,2013-06-24 15:57:00,
2013-06-24 11:27:00,84.6,75.0,30.13,SSE,149,0.0,1.0,73,0.00,,,0.00,weatherlink.com 1.10,2013-06-24 16:27:00,
2013-06-24 11:42:00,86.8,75.0,30.13,WNW,283,2.0,4.0,68,0.00,,,0.00,weatherlink.com 1.10,2013-06-24 16:42:00,
2013-06-24 11:57:00,82.1,75.0,30.13,SW,224,0.0,8.0,78,0.06,,,0.06,weatherlink.com 1.10,2013-06-24 16:57:00,
2013-06-24 12:12:00,80.5,76.0,30.12,NW,311,0.0,2.0,87,0.06,,,0.06,weatherlink.com 1.10,2013-06-24 17:12:00,
2013-06-24 12:27:00,81.7,75.0,30.12,ENE,77,1.0,2.0,81,0.06,,,0.06,weatherlink.com 1.10,2013-06-24 17:27:00,
2013-06-24 13:12:00,86.5,74.0,30.10,SW,236,2.0,6.0,66,0.00,,,0.06,weatherlink.com 1.10,2013-06-24 18:12:00,
2013-06-24 13:27:00,87.8,76.0,30.09,South,172,0.0,4.0,69,0.00,,,0.06,weatherlink.com 1.10,2013-06-24 18:27:00,
2013-06-24 13:42:00,87.3,74.0,30.09,West,278,1.0,7.0,65,0.00,,,0.06,weatherlink.com 1.10,2013-06-24 18:42:00,
2013-06-24 14:12:00,86.4,76.0,30.10,WNW,288,0.0,4.0,70,0.00,,,0.06,weatherlink.com 1.10,2013-06-24 19:12:00,
2013-06-24 14:27:00,86.1,76.0,30.09,West,277,1.0,3.0,72,0.00,,,0.06,weatherlink.com 1.10,2013-06-24 19:27:00,
2013-06-24 14:42:00,85.2,76.0,30.08,NNW,342,2.0,5.0,74,0.00,,,0.06,weatherlink.com 1.10,2013-06-24 19:42:00,
2013-06-24 14:57:00,84.7,76.0,30.09,West,267,0.0,2.0,76,0.00,,,0.06,weatherlink.com 1.10,2013-06-24 19:57:00,
2013-06-24 15:42:00,74.4,72.0,30.12,ENE,60,1.0,2.0,91,0.38,,,0.44,weatherlink.com 1.10,2013-06-24 20:42:00,
2013-06-24 15:57:00,73.6,72.0,30.10,SE,128,0.0,1.0,93,0.48,,,0.54,weatherlink.com 1.10,2013-06-24 20:57:00,
2013-06-24 16:12:00,74.0,72.0,30.09,SE,132,0.0,1.0,94,0.48,,,0.54,weatherlink.com 1.10,2013-06-24 21:12:00,
2013-06-24 16:27:00,74.5,73.0,30.09,SE,132,0.0,0.0,94,0.36,,,0.54,weatherlink.com 1.10,2013-06-24 21:27:00,
2013-06-24 16:42:00,74.9,73.0,30.09,SE,132,0.0,1.0,93,0.09,,,0.54,weatherlink.com 1.10,2013-06-24 21:42:00,
2013-06-24 17:43:00,75.4,73.0,30.07,SE,133,0.0,0.0,93,0.00,,,0.54,weatherlink.com 1.10,2013-06-24 22:43:00,
2013-06-24 17:58:00,75.6,74.0,30.07,SE,133,0.0,1.0,93,0.00,,,0.54,weatherlink.com 1.10,2013-06-24 22:58:00,
2013-06-24 18:13:00,75.7,74.0,30.07,West,273,0.0,0.0,94,0.00,,,0.54,weatherlink.com 1.10,2013-06-24 23:13:00,
2013-06-24 18:28:00,75.8,74.0,30.05,West,273,0.0,2.0,94,0.00,,,0.54,weatherlink.com 1.10,2013-06-24 23:28:00,
2013-06-24 18:43:00,75.8,74.0,30.04,SSW,208,0.0,1.0,94,0.00,,,0.54,weatherlink.com 1.10,2013-06-24 23:43:00,
2013-06-24 18:58:00,75.5,74.0,30.05,SW,221,1.0,2.0,94,0.00,,,0.54,weatherlink.com 1.10,2013-06-24 23:58:00,
2013-06-24 19:13:00,75.5,74.0,30.04,WSW,240,0.0,1.0,95,0.00,,,0.54,weatherlink.com 1.10,2013-06-25 00:13:00,
2013-06-24 19:28:00,75.4,74.0,30.04,SW,228,1.0,1.0,95,0.00,,,0.54,weatherlink.com 1.10,2013-06-25 00:28:00,
2013-06-24 19:43:00,75.3,74.0,30.04,SE,140,0.0,2.0,94,0.00,,,0.54,weatherlink.com 1.10,2013-06-25 00:43:00,
2013-06-24 19:58:00,75.3,74.0,30.06,SE,139,0.0,1.0,95,0.00,,,0.54,weatherlink.com 1.10,2013-06-25 00:58:00,
2013-06-24 20:13:00,75.0,74.0,30.07,NNE,30,3.0,3.0,95,0.00,,,0.54,weatherlink.com 1.10,2013-06-25 01:13:00,
2013-06-24 20:28:00,74.6,73.0,30.09,NNE,23,1.0,6.0,95,0.00,,,0.54,weatherlink.com 1.10,2013-06-25 01:28:00,
2013-06-24 20:43:00,74.1,73.0,30.09,NE,56,0.0,1.0,95,0.00,,,0.54,weatherlink.com 1.10,2013-06-25 01:43:00,
2013-06-24 21:13:00,74.0,73.0,30.09,NE,37,0.0,1.0,96,0.00,,,0.54,weatherlink.com 1.10,2013-06-25 02:13:00,
2013-06-24 21:28:00,74.1,73.0,30.09,North,360,0.0,1.0,96,0.00,,,0.54,weatherlink.com 1.10,2013-06-25 02:28:00,
2013-06-24 21:43:00,74.0,73.0,30.10,SE,138,0.0,1.0,96,0.00,,,0.54,weatherlink.com 1.10,2013-06-25 02:43:00,
2013-06-24 21:58:00,73.8,73.0,30.10,ESE,122,0.0,2.0,96,0.00,,,0.54,weatherlink.com 1.10,2013-06-25 02:58:00,
2013-06-24 22:13:00,73.7,73.0,30.10,ESE,114,0.0,1.0,96,0.00,,,0.54,weatherlink.com 1.10,2013-06-25 03:13:00,
2013-06-24 22:43:00,73.5,72.0,30.11,SE,134,0.0,1.0,96,0.00,,,0.54,weatherlink.com 1.10,2013-06-25 03:43:00,
2013-06-24 22:58:00,73.5,72.0,30.11,SSE,155,1.0,3.0,96,0.00,,,0.54,weatherlink.com 1.10,2013-06-25 03:58:00,
2013-06-24 23:13:00,73.5,72.0,30.11,SSE,150,0.0,1.0,96,0.00,,,0.54,weatherlink.com 1.10,2013-06-25 04:13:00,
2013-06-24 23:28:00,73.5,72.0,30.11,SSE,150,0.0,1.0,96,0.00,,,0.54,weatherlink.com 1.10,2013-06-25 04:28:00,
2013-06-24 23:43:00,73.5,72.0,30.10,SSE,151,0.0,0.0,96,0.00,,,0.54,weatherlink.com 1.10,2013-06-25 04:43:00,
2013-06-24 23:58:00,73.6,72.0,30.11,SSE,150,0.0,1.0,96,0.00,,,0.54,weatherlink.com 1.10,2013-06-25 04:58:00,